Location: Most
(50.5133°N, 13.6207°E)
Time: 10:47:06
(UTC+01:00)

Oscar 11 - Pass Details

Date: 01 December 2022
Orbit: 611 x 621 km, 97.6° (Epoch: 28 January)

Event Time Altitude Azimuth Distance (km) Brightness Sun altitude
Rises 06:44:27 0° 357° (N) 2,893 10.2 -9.1°
Reaches altitude 10° 06:48:15 10° 322° (NW) 1,980 9.1 -8.6°
Maximum altitude 06:49:27 11° 306° (NW) 1,908 8.9 -8.4°
Enters shadow 06:50:15 11° 295° (WNW) 1,938 8.9 -8.3°
